Flag for United Kingdom Weather past 2 weeks in Taunton, England, United Kingdom

Now
52 °F

Cool.


Feels Like: 48 °F
Forecast: 40 / 58 °F
Wind: 12 mph from Northwest

Location: Dunkeswell Aerodrome


UV Index: 0 (Low)

Visibility: 15 mi


Pressure: 30.13 "Hg

Humidity: 75%

Dew point: 44 °F

Location of TauntonLocation

Historic Weather in Taunton

°F

Taunton temperature yesterday

Maximum temperature yesterday: 54 °F (at 3:00 PM)
Minimum temperature yesterday: 40 °F (at 4:00 AM)
Average temperature yesterday: 46 °F

Past Weeks' High & Low Weather Summary

 TemperatureHumidityPressure
High59 °F (Apr 11, 5:00 PM)100% (Apr 3, 9:00 AM)30.40 "Hg (Apr 3, 9:00 AM)
Low38 °F (Apr 10, 7:00 AM)45% (Apr 11, 5:00 PM)29.47 "Hg (Apr 3, 3:00 AM)
Average48 °F87%30.06 "Hg
* Reported Apr 2 5:00 PM — Apr 17 5:00 PM, Taunton, Weather by CustomWeather, © 2014

Note: Actual official high and low records may vary slightly from our data, if they occured in-between our weather recording intervals... More about our weather records

Advertising

Historic Weather Conditions — Data for Previous 24 hours

 ConditionsComfort  
Time TempWeatherWind HumidityBarometerVisibility
5:00 PM
Apr 17
52 °FCool.12 mph75%30.13 "Hg15 mi
4:00 PM54 °FSmoke.12 mph75%30.14 "Hg5 mi
3:00 PM54 °FCool.13 mph76%30.14 "Hg12 mi
2:00 PM57 °FCool.10 mph72%30.14 "Hg14 mi
1:00 PM56 °FCool.7 mph71%30.14 "Hg11 mi
12:00 PM54 °FSmoke.8 mph72%30.18 "Hg5 mi
11:00 AM51 °FCool.9 mph79%30.21 "Hg7 mi
10:00 AM50 °FCool.7 mph81%30.19 "Hg7 mi
9:00 AM48 °FCool.6 mph81%30.18 "Hg7 mi
8:00 AM45 °FCool.3 mph88%30.18 "Hg7 mi
7:00 AM41 °FQuite cool.3 mph99%30.19 "Hg6 mi
6:00 AM39 °FFog.1 mph100%30.19 "Hg4 mi
5:00 AM40 °FFog.3 mph100%30.19 "Hg5 mi
4:00 AM42 °FFog.5 mph100%30.20 "Hg6 mi
3:00 AM38 °FFog.2 mph100%30.24 "Hg2 mi
2:00 AM40 °FFog.3 mph100%30.26 "Hg2 mi
1:00 AM42 °FFog.3 mph100%30.25 "Hg3 mi
12:00 AM40 °FFog.3 mph99%30.25 "Hg3 mi
11:00 PM
Apr 16
42 °FFog.7 mph97%30.25 "Hg4 mi
10:00 PM42 °FSmoke.9 mph88%30.26 "Hg6 mi
9:00 PM43 °FQuite cool.8 mph81%30.26 "Hg7 mi
Weather by CustomWeather, © 2014

See weather overview